sat.trackr.live / text

‹ back to catalog

STARLINK-34395

NORAD 64668 · 2025-139E

PAYLOAD ACTIVE UNKNOWN

§ Identity

Operator
Country
US
Launch date
2025-06-28
Launch site
AFETR
Launch vehicle
Mass (kg)
RCS (m²)

Purposes: comms

External: N2YO · Heavens-Above · Gunter

§ Orbital elements

Epoch: 2026-05-25T02:37:35.160672Z

Period
93.85 min
Inclination
53.1580°
Eccentricity
0.0001063
Mean motion
15.34396902 rev/d
Perigee alt
462.0 km
Apogee alt
463.4 km
Semi-major
6,840.8 km
B*
5.5936e-4
RAAN
131.4191°
Arg perigee
43.1637°
Mean anomaly
316.9448°
Rev number
5,199

§ Raw data

STARLINK-343951 64668U 25139E   26145.10943473  .00018568  00000+0  55936-3 0  99972 64668  53.1580 131.4191 0001063  43.1637 316.9448 15.34396902 51999

JSON: /api/v1/satellites/64668 · /tle

For live sub-satellite position, see the globe view (requires WebGL).

§ Visibility from observer

Set your observer location to see the next 7 days of passes ≥ 10°. The values pass through the URL so the page stays shareable.

No JS? Fill the form by hand. The geolocation button needs JavaScript.